Preview of NWS' New Version of Forecast
This preview is not operational and should not be used for support decisions.

Regional Weather Roundup (RWR)

Issued by National Weather Service (NWS)

                            
494 
ASUS44 KOUN 200510
RWROK 

WEATHER ROUNDUP FOR OKLAHOMA
NATIONAL WEATHER SERVICE NORMAN OK
1200 AM CDT WED JUN 20 2018

NOTE: "FAIR" INDICATES FEW OR NO CLOUDS BELOW 12,000 FEET WITH NO
      SIGNIFICANT WEATHER AND/OR OBSTRUCTIONS TO VISIBILITY.

OKZ001>007-009>012-014-015-017-200600-
NORTHWEST OKLAHOMA AND THE PANHANDLE
  
CITY           SKY/WX    TMP DP  RH WIND       PRES   REMARKS
GAGE           CLOUDY    78  64  61 S16       29.88S                  
GUYMON         PTCLDY    76  64  66 SE10      29.90R                  
ENID/WOODRING  MOCLDY    77  70  78 S12       29.87F                  
$$

OKZ016-021>023-033>039-044-045-200600-
SOUTHWEST OKLAHOMA
  
CITY           SKY/WX    TMP DP  RH WIND       PRES   REMARKS
LAWTON/REGL    CLEAR     78  70  76 SE10      29.90S                  
LAWTON/FT SILL CLEAR     76  72  86 S12       29.89S                  
FREDERICK      CLEAR     79  69  71 SE14      29.87S                  
CLINTON        CLEAR     77  66  68 S20       29.90F                  
HOBART         CLEAR     78  67  68 S17       29.90F                  
ALTUS AFB      CLEAR     78  66  65 SE14      29.89S                  
$$

OKZ018>020-024>031-200600-
CENTRAL OKLAHOMA
  
CITY           SKY/WX    TMP DP  RH WIND       PRES   REMARKS
OKLAHOMA CITY  PTCLDY    74  69  85 S8        29.91S                  
OKC/WILEY POST CLEAR     77  70  79 S12       29.91R                  
OKC/TINKER AFB CLEAR     76  69  78 S9        29.91S                  
STILLWATER     PTCLDY    76  69  79 S10       29.90R                  
GUTHRIE        PTCLDY    76  70  82 S9        29.90S                  
$$

OKZ008-013-054>072-200600-
NORTHEAST OKLAHOMA
  
CITY           SKY/WX    TMP DP  RH WIND       PRES   REMARKS
TULSA          PTCLDY    81  70  69 S8        29.89S                  
TULSA/JONES    CLEAR     80  70  71 S9        29.89F                  
PONCA CITY     MOCLDY    78  69  73 SE10      29.90R                  
BARTLESVILLE   CLEAR     71  70  96 CALM      29.92R                  
MUSKOGEE       PTCLDY    75  72  90 S6        29.92S                  
$$

OKZ032-040>043-046>053-073>077-200600-
SOUTH CENTRAL/SOUTHEAST OKLAHOMA
  
CITY           SKY/WX    TMP DP  RH WIND       PRES   REMARKS
ARDMORE/DWNTWN CLEAR     73  68  83 CALM      29.90F                  
MCALESTER      PTCLDY    77  68  73 SE5       29.93S                  
$$